Погода в Тынде

Погода в Тынде : погода сейчас, прогноз погоды и архив. Всё, что Вы хотите узнать о погоде в Тынде!

Хотите узнать прогноз погоды в Тынде? Тогда Вам сюда: Погода в Тынде

Поиск расширенной информации на нашем сайте:

Другие новости

Новости СМИ2

Главная страница сайта

Новости сайта

03.07.2017

Напоминаем, что на нашем специализированном сайте Метеоцентр.Азия вы можете получить высокодетализированные автоматические прогнозы погоды по пунктам России, СНГ и мира в авиационном формате (включающие направление и скорость ветра, видимость, явления погоды, количество и форму облачности, нижнюю и верхнюю границу облачности).


Погода в Тынде - сегодня

Время (UTC), дата Ветер
(°,м/с) 
Видим.   Явления Облачность Т
(°С)
Тd
(°С)
f(%) Тe
(°С)
Pmin
(гПа)
dP
(гПа)
Po
(мм)
O2
(г/м3)
Тmin Tmax R s Состояние
почвы
09 17.09.17 тихо ()   20000 м    8/5 600 м средняя, верхняя 
[Sc|Ac cast|Cc]
+16.7 +7.9 56 +17  1003.6  0.1  708  267           
15 17.09.17 тихо ()   20000 м    3/3 600 м 
[Sc]
+6.5 +5.4 93 +7  1006.8  0.2  708  278           
18 17.09.17 210 (ЮЗ) 20000 м    ясно 
+4.6 +3.6 93 +5  1007.4  0.6  708  280           
21 17.09.17 060 (СВ) 20000 м    ясно 
+5.7 +5.2 97 +7  1007  0.1  708  279           
00 18.09.17 тихо ()   0500 м  туман  ясно 
+7.3 +6.9 97 +7  1007.2  0.6  709  277  +4.2        влажная 
03 18.09.17 070 (В) 20000 м  в посл. час туман  8/8 600 м кучево-дожд. 
[Cb cap]
+10.8 +8.5 86 +12  1005.8  -0.5  708  273           
06 18.09.17 130 (ЮВ) 20000 м  {туман}  8/4 600 м 
[Sc diur, vesp]
+16 +8 59 +17  1003  -1.6  707  268           
09 18.09.17 110 (В) 20000 м    6/0 верхняя 
[Ci fib]
+16.4 +7.7 56 +18  1002.4  -0.4  707  267           
15 18.09.17 250 (З) 20000 м    ясно 
+5.5 +4.7 95 +6  1005.9  0.2  708  279           
18 18.09.17 260 (З) 20000 м    ясно 
+3.4 +2.9 97 +2  1008.2  1.6  709  282           
21 18.09.17 270 (З) 20000 м    4/0 верхняя 
[Ci fib]
+4.9 +3.3 89 +5  1009.6  1.6  710  280           
00 19.09.17 330 (СЗ) 20000 м    10/0 средняя, верхняя 
[Ac As|Cs]
+6.2 +1.4 71 +6  1010.2  0.8  711  280  +2.6        сухая 
03 19.09.17 360 (С) 20000 м    9/0 средняя, верхняя 
[Ac trans|Ci sp]
+9.8 -0.1 50 +10  1009.2  -0.3  710  276           
06 19.09.17 330 (СЗ) 20000 м    8/8 600 м верхняя 
[Sc|Ci fib]
+12.9 -0.1 41 +13  1007.5  -0.9  710  273           
09 19.09.17 010 (С) 20000 м    9/0 средняя, верхняя 
[Ac trans|Ci fib]
+9 -1 49 +8  1009  0.5  710  277           
12 19.09.17 010 (С) 20000 м    4/0 верхняя 
[Ci fib]
+3.8 -2.1 65 +5  1011.7  1.4  711  283    +12.9       
15 19.09.17 270 (З) 20000 м    ясно 
-0.6 -3.1 83 1013.5  0.7  712  288           
18 19.09.17 260 (З) 20000 м    ясно 
-3.1 -4.1 93 -5  1014.4  0.3  712  291           
21 19.09.17 260 (З) 20000 м    ясно 
-4.8 -5.6 94 -7  1014.7  -0.2  712  293           
00 20.09.17 270 (З) 20000 м    ясно 
+0.1 -2.9 80 -2  1013.5  712  287  -5.6        замёрзшая 
03 20.09.17 270 (З) 20000 м    ясно 
+8.5 -3.8 42 +9  1010.4  -1  711  278           
06 20.09.17 190 (Ю) 20000 м    8/0 верхняя 
[Ci fib]
+13.6 -3.1 31 +15  1007.4  -1.8  710  273           
09 20.09.17 тихо ()   20000 м    10/5 600 м кучево-дожд., верхняя 
[Cb cap|Ci fib]
+11.1 -1.6 41 +11  1007.6  -0.3  710  275           
12 20.09.17 тихо ()   20000 м    ясно 
+5.8 -1 62 +6  1009.2  0.4  710  280    +14.1       
15 20.09.17 тихо ()   20000 м    ясно 
+4.4 -0.6 70 +4  1010.1  0.5  710  282           
Время (UTC), дата Ветер
(°,м/с) 
Видим.   Явления Облачность Т
(°С)
Тd
(°С)
f(%) Тe
(°С)
Pmin
(гПа)
dP
(гПа)
Po
(мм)
O2
(г/м3)
Тmin Tmax R s Состояние
почвы

Для получения пояснительной информации подведите курсор к названию столбца.

ПОГОДА в Тынде - архив

Всё, что Вы хотите узнать о погоде в Тынде - удобно и подробно!

Выберите нужную дату (начиная с 1 января 2015* года) и нажмите кнопку "Найти".
Будут отображены архивные сводки погоды по пункту Тында, начиная с указанной даты.


Отображать данные в формате CSV (для использования в таблицах Excel)


Внимание! Наш архив погоды предназначен исключительно для личного некоммерческого использования в познавательных целях. Если Вам необходимы официальные справки о состоянии погоды (для производственных, юридических, коммерческих и т.п. целей), обращайтесь в органы Росгидромета.

*Примечание: данная дата относится к архиву по метеостанциям СССР (Россия, СНГ, Балтия).
Архив по метеостанциям Зарубежной Европы и Азии (кроме Китая) хранится 10 дней, по другим регионам земного шара (Китай, Африка, Америка, Австралия, Океания) - 1 день.

Тында - район местоположения метеостанции


Название, широта, долгота, высота метеостанции:
Тында 55.2°ш. 124.7°д. 528 м над ур. моря [Российская Федерация]

Дополнительная информация

В oтличие oт бoльшинства пoгoдных сайтoв мы публикуем пoдрoбную метеoинфoрмацию в детальнoм прoфессиoнальнoм фoрмате.

Характеристики температуры и влажнoсти вoздуха измеряются на высoте 2 м в тени вдали oт зданий и деревьев.
Скoрoсть ветра измеряется на высoте 10 м (на урoвне рoста челoвека скoрoсть ветра ниже в 1.5-2 раза). Если метеoстанция нахoдится в гoрoде или в лесу, тo скoрoсть ветра занижена на 2-4 м/с пo сравнению с oткрытым местoм. Скoрoсть ветра над акватoриями крупных рек и oзёр, а также на вершинах хoлмoв на 2-5 м/с выше, чем в oбычных услoвиях.
Атмoсфернoе давление в разных тoчках местнoсти мoжет значительнo oтличаться oт давления на метеoстанции, в зависимoсти oт услoвий рельефа (при пoдъёме на 10 м давление пoнижается примернo на 1 мм рт.ст.).